TimeMDT,TemperatureF,Dew PointF,Humidity,Sea Level PressureIn,VisibilityMPH,Wind Direction,Wind SpeedMPH,Gust SpeedMPH,PrecipitationIn,Events,Conditions,WindDirDegrees,DateUTC
12:15 AM,62.6,44.6,52,30.05,10.0,Calm,Calm,-,N/A,,Clear,0,2012-10-16 06:15:00
12:35 AM,62.6,44.6,52,30.04,10.0,Calm,Calm,-,N/A,,Clear,0,2012-10-16 06:35:00
1:15 AM,60.8,42.8,52,30.04,10.0,East,3.5,-,N/A,,Clear,100,2012-10-16 07:15:00
1:35 AM,60.8,42.8,52,30.04,10.0,ESE,6.9,-,N/A,,Clear,120,2012-10-16 07:35:00
1:55 AM,59.0,42.8,55,30.04,10.0,ESE,4.6,-,N/A,,Clear,120,2012-10-16 07:55:00
2:35 AM,57.2,42.8,59,30.04,10.0,SE,9.2,-,N/A,,Clear,140,2012-10-16 08:35:00
2:55 AM,57.2,42.8,59,30.04,10.0,Calm,Calm,-,N/A,,Clear,0,2012-10-16 08:55:00
3:35 AM,57.2,41.0,55,30.04,10.0,Calm,Calm,-,N/A,,Clear,0,2012-10-16 09:35:00
3:55 AM,57.2,41.0,55,30.05,10.0,East,3.5,-,N/A,,Clear,100,2012-10-16 09:55:00
4:15 AM,57.2,41.0,55,30.05,10.0,ESE,4.6,-,N/A,,Clear,110,2012-10-16 10:15:00
4:35 AM,55.4,42.8,63,30.05,10.0,South,3.5,-,N/A,,Clear,170,2012-10-16 10:35:00
4:55 AM,53.6,42.8,67,30.04,10.0,SSE,8.1,-,N/A,,Clear,160,2012-10-16 10:55:00
5:15 AM,53.6,41.0,62,30.04,10.0,SSE,4.6,-,N/A,,Clear,150,2012-10-16 11:15:00
5:35 AM,53.6,41.0,62,30.04,10.0,Calm,Calm,-,N/A,,Clear,0,2012-10-16 11:35:00
6:15 AM,55.4,41.0,58,30.05,10.0,Calm,Calm,-,N/A,,Clear,0,2012-10-16 12:15:00
6:35 AM,53.6,41.0,62,30.05,10.0,South,3.5,-,N/A,,Clear,180,2012-10-16 12:35:00
6:55 AM,53.6,39.2,58,30.05,10.0,South,4.6,-,N/A,,Clear,170,2012-10-16 12:55:00
7:15 AM,53.6,39.2,58,30.04,10.0,Calm,Calm,-,N/A,,Clear,0,2012-10-16 13:15:00
7:35 AM,53.6,39.2,58,30.05,10.0,Calm,Calm,-,N/A,,Clear,0,2012-10-16 13:35:00
7:55 AM,55.4,39.2,54,30.05,10.0,Calm,Calm,-,N/A,,Clear,0,2012-10-16 13:55:00
8:15 AM,53.6,39.2,58,30.06,10.0,Calm,Calm,-,N/A,,Clear,0,2012-10-16 14:15:00
8:35 AM,53.6,41.0,62,30.06,10.0,South,3.5,-,N/A,,Clear,190,2012-10-16 14:35:00
8:55 AM,53.6,41.0,62,30.07,10.0,SSW,4.6,-,N/A,,Clear,200,2012-10-16 14:55:00
9:15 AM,55.4,42.8,63,30.07,10.0,SSW,4.6,-,N/A,,Clear,200,2012-10-16 15:15:00
9:35 AM,55.4,42.8,63,30.06,10.0,South,5.8,-,N/A,,Clear,190,2012-10-16 15:35:00
9:55 AM,57.2,42.8,59,30.07,10.0,SSW,4.6,-,N/A,,Clear,200,2012-10-16 15:55:00
10:15 AM,59.0,42.8,55,30.07,10.0,Calm,Calm,-,N/A,,Clear,0,2012-10-16 16:15:00
10:55 AM,62.6,42.8,48,30.06,10.0,Calm,Calm,-,N/A,,Clear,0,2012-10-16 16:55:00
11:15 AM,64.4,42.8,45,30.06,10.0,Calm,Calm,-,N/A,,Clear,0,2012-10-16 17:15:00
11:35 AM,64.4,42.8,45,30.05,10.0,Calm,Calm,-,N/A,,Clear,0,2012-10-16 17:35:00
11:55 AM,66.2,39.2,37,30.04,10.0,Calm,Calm,-,N/A,,Clear,0,2012-10-16 17:55:00
12:55 PM,69.8,42.8,38,30.01,10.0,Calm,Calm,-,N/A,,Clear,0,2012-10-16 18:55:00
1:15 PM,71.6,41.0,33,30.00,10.0,Calm,Calm,-,N/A,,Clear,0,2012-10-16 19:15:00
1:35 PM,73.4,42.8,33,29.98,10.0,Calm,Calm,-,N/A,,Clear,0,2012-10-16 19:35:00
1:55 PM,73.4,42.8,33,29.96,10.0,Calm,Calm,-,N/A,,Clear,0,2012-10-16 19:55:00
2:15 PM,75.2,42.8,31,29.94,10.0,Calm,Calm,-,N/A,,Clear,0,2012-10-16 20:15:00
2:35 PM,75.2,42.8,31,29.93,10.0,SSE,3.5,-,N/A,,Clear,150,2012-10-16 20:35:00
2:55 PM,75.2,42.8,31,29.92,10.0,Calm,Calm,-,N/A,,Clear,0,2012-10-16 20:55:00
3:15 PM,75.2,41.0,29,29.91,10.0,NW,4.6,-,N/A,,Clear,320,2012-10-16 21:15:00
3:35 PM,78.8,42.8,28,29.90,10.0,Calm,Calm,-,N/A,,Clear,0,2012-10-16 21:35:00
3:55 PM,78.8,42.8,28,29.89,10.0,Calm,Calm,-,N/A,,Clear,0,2012-10-16 21:55:00
4:15 PM,80.6,41.0,24,29.88,10.0,Calm,Calm,-,N/A,,Clear,0,2012-10-16 22:15:00
4:35 PM,80.6,39.2,23,29.87,10.0,West,5.8,-,N/A,,Clear,280,2012-10-16 22:35:00
4:55 PM,80.6,37.4,21,29.86,10.0,WSW,12.7,-,N/A,,Clear,250,2012-10-16 22:55:00
5:15 PM,80.6,37.4,21,29.85,10.0,West,10.4,-,N/A,,Clear,270,2012-10-16 23:15:00
5:35 PM,80.6,37.4,21,29.85,10.0,West,11.5,-,N/A,,Clear,280,2012-10-16 23:35:00
5:55 PM,80.6,37.4,21,29.84,10.0,West,11.5,17.3,N/A,,Clear,270,2012-10-16 23:55:00
6:35 PM,78.8,37.4,23,29.85,10.0,West,8.1,-,N/A,,Clear,260,2012-10-17 00:35:00
6:55 PM,77.0,37.4,24,29.85,10.0,West,9.2,-,N/A,,Clear,270,2012-10-17 00:55:00
7:15 PM,75.2,37.4,25,29.86,10.0,WSW,11.5,-,N/A,,Clear,250,2012-10-17 01:15:00
7:55 PM,73.4,41.0,31,29.87,10.0,WSW,6.9,-,N/A,,Clear,250,2012-10-17 01:55:00
8:15 PM,71.6,41.0,33,29.87,10.0,Calm,Calm,-,N/A,,Clear,0,2012-10-17 02:15:00
8:35 PM,71.6,41.0,33,29.88,10.0,Calm,Calm,-,N/A,,Clear,0,2012-10-17 02:35:00
8:55 PM,71.6,39.2,31,29.88,10.0,South,4.6,-,N/A,,Clear,190,2012-10-17 02:55:00
9:35 PM,66.2,42.8,43,29.89,10.0,Calm,Calm,-,N/A,,Clear,0,2012-10-17 03:35:00
9:55 PM,66.2,42.8,43,29.90,10.0,Calm,Calm,-,N/A,,Clear,0,2012-10-17 03:55:00
10:15 PM,66.2,42.8,43,29.90,10.0,SE,8.1,-,N/A,,Clear,130,2012-10-17 04:15:00
10:35 PM,66.2,42.8,43,29.91,10.0,SSE,5.8,-,N/A,,Clear,160,2012-10-17 04:35:00
10:55 PM,64.4,42.8,45,29.91,10.0,SSW,4.6,-,N/A,,Clear,200,2012-10-17 04:55:00
11:55 PM,64.4,42.8,45,29.92,10.0,South,3.5,-,N/A,,Clear,170,2012-10-17 05:55:00